[[{"header":{"parameterUnit":"m.s-1","parameterCategory":1,"la1":30.2991,"la2":30.254,"lo1":-89.0895,"lo2":-89.0444,"dy":0.0017,"dx":0.0017,"nx":28,"ny":28,"refTime":"2025-04-01T09:00:00:Z","depth":0,"parameterNumber":2,"parameterNumberName":"U-component_of_WINDS"},"data":[0,0,0,0,0,0,0,0,0,0,0,0,0,0,0,0,0,0,0,0,0,0,0,0,0,0,0,0,0,0,0,0,0,0,0,0,0,0,0,0,0,0,0,0,0,0,0,0,0,0,0,0,0,0,0,0,0,0,-4.4252,-4.4254,0,-4.4399,-4.4401,-4.4403,-4.4433,-4.4432,-4.443,-4.4429,-4.458,-4.4585,-4.459,0,0,0,0,0,0,0,0,0,0,0,0,0,-4.3998,-4.4002,-4.4252,-4.4254,-4.4256,-4.4399,-4.4401,-4.4403,-4.4433,-4.4432,-4.443,-4.4429,-4.4578,-4.4584,-4.459,0,0,0,0,0,0,0,0,0,0,0,0,0,-4.4123,-4.4004,-4.4252,-4.4288,-4.4293,-4.4399,-4.4401,-4.4404,-4.4433,-4.4432,-4.443,-4.4428,-4.4576,-4.4584,-4.4591,-4.4671,0,0,-4.4614,-4.4618,0,0,0,0,0,0,0,0,-4.4116,-4.4132,-4.4281,-4.4286,-4.4291,-4.4396,-4.4367,-4.4493,-4.4434,-4.438,-4.4429,-4.4427,-4.452,-4.4532,-4.4563,-4.4678,-4.4685,-4.4615,-4.462,-4.4623,-4.4625,0,0,0,0,0,0,0,-4.4107,-4.4126,-4.431,-4.4283,-4.4289,-4.4297,-4.4313,-4.4391,-4.4458,-4.4384,-4.4387,-4.4404,-4.4523,-4.4556,-4.4567,-4.4687,-4.4615,-4.4621,-4.4626,-4.4629,-4.4876,-4.4878,0,0,0,0,0,0,-4.4092,-4.4118,-4.4306,-4.4315,-4.4197,-4.4303,-4.4321,-4.4364,-4.4457,-4.4469,-4.4405,-4.4405,-4.4544,-4.4558,-4.4573,-4.4672,-4.4623,-4.463,-4.4634,-4.4874,-4.4876,-4.4878,0,0,0,0,0,0,-4.4086,-4.4108,-4.43,-4.4217,-4.4242,-4.4309,-4.4357,-4.4368,-4.4401,-4.4473,-4.4485,-4.4427,-4.4543,-4.4562,-4.4647,-4.4678,-4.4633,-4.464,-4.4871,-4.4875,-4.4877,-4.4873,0,0,0,0,0,0,-4.4079,-4.4106,-4.4137,-4.4218,-4.4247,-4.4371,-4.4359,-4.4372,-4.4414,-4.4415,-4.4496,-4.4508,-4.4543,-4.4635,-4.4654,-4.4688,-4.4646,-4.4869,-4.4873,-4.4876,-4.487,-4.4875,-4.4879,0,0,0,0,0,-4.407,-4.413,-4.4138,-4.4161,-4.4287,-4.4373,-4.4389,-4.4429,-4.4417,-4.4448,-4.4494,-4.4505,-4.4672,-4.4644,-4.4665,-4.4701,-4.4867,-4.4872,-4.4876,-4.4868,-4.4874,-4.4879,0,0,0,0,0,0,-4.405,-4.4141,-4.4151,-4.4239,-4.4298,-4.4378,-4.4419,-4.4434,-4.4497,-4.4495,-4.4541,-4.4559,-4.4641,-4.468,-4.4647,-4.4784,-4.4769,-4.4778,-4.4755,-4.4762,-4.4766,-4.4754,-4.4652,0,0,0,0,0,-4.4056,-4.4119,-4.4195,-4.4265,-4.4294,-4.4351,-4.439,-4.4416,-4.4478,-4.4503,-4.4555,-4.4616,-4.4682,-4.4724,-4.4789,-4.4877,-4.4895,-4.4912,-4.4917,-4.492,-4.4927,-4.4976,-4.4985,-4.4893,-4.4893,-4.4893,0,0,-4.4069,-4.4127,-4.4163,-4.4262,-4.4311,-4.4374,-4.4372,-4.4439,-4.4487,-4.4514,-4.4596,-4.4637,-4.4708,-4.4794,-4.4835,-4.4829,-4.4957,-4.4926,-4.4928,-4.4933,-4.4982,-4.499,-4.4998,-4.4896,-4.4896,-4.4895,0,0,-4.4125,-4.4175,-4.4239,-4.4288,-4.4361,-4.4399,-4.4415,-4.4493,-4.452,-4.4605,-4.4626,-4.4684,-4.4796,-4.4846,-4.4886,-4.4962,-4.4974,-4.4982,-4.5005,-4.5052,-4.5059,-4.5066,-4.5092,-4.5101,-4.4989,-4.4989,-4.4989,0,-4.4132,-4.4228,-4.427,-4.4336,-4.4379,-4.4407,-4.4472,-4.4518,-4.4609,-4.4638,-4.4631,-4.4773,-4.4823,-4.4921,-4.4939,-4.4971,-4.499,-4.4972,-4.5055,-4.5062,-4.5069,-4.5094,-4.5104,-4.4989,-4.4989,-4.4989,-4.4989,0,-4.4233,-4.4299,-4.4342,-4.4429,-4.4477,-4.4543,-4.4595,-4.4639,-4.466,-4.4699,-4.4785,-4.4846,-4.4923,-4.4949,-4.497,-4.5051,-4.5045,-4.5046,-4.5031,-4.5077,-4.5102,-4.5112,-4.4989,-4.4989,-4.4989,-4.4989,0,0,-4.4279,-4.4389,-4.4404,-4.4444,-4.4528,-4.458,-4.4647,-4.4723,-4.476,-4.4822,-4.4879,-4.4975,-4.4976,-4.5021,-4.5049,-4.5091,-4.5147,-4.5087,-4.509,-4.5095,-4.5238,-4.5236,-4.5247,-4.5156,-4.5159,-4.516,-4.5232,0,-4.4344,-4.4464,-4.4504,-4.4604,-4.4666,-4.4694,-4.4752,-4.481,-4.4849,-4.4907,-4.495,-4.5017,-4.5014,-4.5041,-4.5084,-4.5131,-4.5176,-4.5126,-4.521,-4.5212,-4.5189,-4.526,-4.5258,-4.5323,-4.5242,-4.5244,-4.5245,0,-4.4436,-4.4499,-4.4605,-4.4681,-4.4709,-4.4761,-4.4834,-4.4889,-4.4956,-4.4981,-4.5032,-4.5057,-4.5129,-4.5111,-4.521,-4.5175,-4.5212,-4.524,-4.5244,-4.5252,-4.523,-4.5269,-4.5345,-4.5354,-4.5261,-4.526,-4.5259,0,-4.4458,-4.457,-4.4648,-4.4682,-4.4773,-4.4808,-4.4848,-4.4913,-4.4956,-4.502,-4.5049,-4.5121,-4.5159,-4.5215,-4.5258,-4.5241,-4.5353,-4.5339,-4.5376,-4.5375,-4.5397,-4.5395,-4.5478,-4.5423,-4.5422,-4.5422,-4.5422,0,-4.4526,-4.459,-4.4659,-4.4707,-4.4779,-4.4825,-4.4895,-4.4937,-4.4994,-4.5051,-4.508,-4.5132,-4.5187,-4.5247,-4.5282,-4.5359,-4.5376,-4.5398,-4.5407,-4.5395,-4.5392,-4.5419,-4.5415,-4.5425,-4.5424,-4.5424,-4.5423,0,-4.4562,-4.4612,-4.4698,-4.4778,-4.4799,-4.4849,-4.4917,-4.4964,-4.5005,-4.5076,-4.5095,-4.5158,-4.523,-4.528,-4.5372,-4.5396,-4.5478,-4.5486,-4.5455,-4.5459,-4.5493,-4.5488,-4.5595,-4.5611,-4.5545,-4.5546,-4.5547,0,-4.4602,-4.4651,-4.4736,-4.4776,-4.4816,-4.4879,-4.4924,-4.4971,-4.5016,-4.5096,-4.5134,-4.5208,-4.5269,-4.5383,-4.5437,-4.5508,-4.5518,-4.5551,-4.5529,-4.5515,-4.5517,-4.5513,-4.5518,-4.5553,-4.5554,-4.5554,-4.5554,0,-4.4667,-4.4689,-4.4751,-4.4823,-4.4875,-4.4933,-4.4992,-4.5023,-4.5081,-4.513,-4.5204,-4.5252,-4.5346,-4.5419,-4.5495,-4.5537,-4.5555,-4.5561,-4.5573,-4.5561,-4.5541,-4.5552,-4.5463,-4.5558,-4.5558,-4.5557,-4.5557,-4.5557,-4.4706,-4.4751,-4.4817,-4.4886,-4.4935,-4.499,-4.5038,-4.5085,-4.5147,-4.5227,-4.5252,-4.5329,-4.5395,-4.5499,-4.5541,-4.5602,-4.56,-4.5617,-4.5622,-4.5625,-4.5624,-4.5532,-4.5617,-4.5617,-4.5617,-4.5616,-4.5616,0,-4.4771,-4.4816,-4.4879,-4.496,-4.5014,-4.5027,-4.5093,-4.5137,-4.5204,-4.5264,-4.5324,-4.5409,-4.5481,-4.5541,-4.5614,-4.5651,-4.5662,-4.5669,-4.5666,-4.5675,-4.5623,-4.5605,-4.5659,-4.5659,-4.5659,-4.5659,-4.5659,-4.5659,-4.4812,-4.4889,-4.4919,-4.5021,-4.5065,-4.514,-4.5176,-4.5227,-4.5275,-4.5368,-4.5427,-4.5466,-4.5526,-4.5605,-4.5671,-4.5687,-4.5712,-4.5717,-4.5735,-4.5684,-4.5679,-4.5674,-4.5657,-4.5723,-4.5723,-4.5782,-4.5783,-4.5783]},{"header":{"parameterUnit":"m.s-1","parameterCategory":1,"la1":30.2991,"la2":30.254,"lo1":-89.0895,"lo2":-89.0444,"dy":0.0017,"dx":0.0017,"nx":28,"ny":28,"refTime":"2025-04-01T09:00:00:Z","depth":0,"parameterNumber":3,"parameterNumberName":"V-component_of_WINDS"},"data":[0,0,0,0,0,0,0,0,0,0,0,0,0,0,0,0,0,0,0,0,0,0,0,0,0,0,0,0,0,0,0,0,0,0,0,0,0,0,0,0,0,0,0,0,0,0,0,0,0,0,0,0,0,0,0,0,0,0,6.9108,6.911,0,6.923,6.9232,6.9233,6.921,6.9207,6.9205,6.9203,6.9326,6.9331,6.9336,0,0,0,0,0,0,0,0,0,0,0,0,0,6.8855,6.8859,6.9108,6.911,6.9111,6.923,6.9232,6.9233,6.921,6.9207,6.9205,6.9202,6.9324,6.933,6.9336,0,0,0,0,0,0,0,0,0,0,0,0,0,6.897,6.8861,6.9108,6.9114,6.9116,6.923,6.9232,6.9234,6.921,6.9207,6.9204,6.9201,6.9322,6.9329,6.9337,6.9452,0,0,6.9362,6.9365,0,0,0,0,0,0,0,0,6.8963,6.8979,6.9112,6.9114,6.9116,6.9201,6.9187,6.9307,6.9211,6.9174,6.9203,6.9199,6.9287,6.9297,6.9327,6.9458,6.9463,6.9362,6.9367,6.9371,6.9373,0,0,0,0,0,0,0,6.8955,6.8973,6.9156,6.9113,6.9116,6.9111,6.9123,6.921,6.9247,6.9177,6.9176,6.9191,6.9287,6.932,6.933,6.9465,6.9362,6.9369,6.9374,6.9377,6.97,6.9703,0,0,0,0,0,0,6.8945,6.8967,6.9153,6.916,6.903,6.9118,6.9132,6.9177,6.9246,6.9254,6.9194,6.9189,6.9308,6.9321,6.9334,6.9476,6.937,6.9378,6.9383,6.9696,6.97,6.9704,0,0,0,0,0,0,6.894,6.8962,6.9148,6.9063,6.9086,6.9126,6.9177,6.9181,6.9214,6.9259,6.9265,6.922,6.9306,6.9323,6.9424,6.948,6.9382,6.9389,6.9691,6.9697,6.9702,6.9758,0,0,0,0,0,0,6.8933,6.896,6.9004,6.9065,6.9091,6.9236,6.918,6.9186,6.9228,6.9224,6.9285,6.9292,6.9304,6.9412,6.9432,6.9489,6.9395,6.9687,6.9694,6.9701,6.9752,6.9765,6.9777,0,0,0,0,0,6.8924,6.9014,6.9007,6.9029,6.9147,6.9239,6.9254,6.9267,6.9232,6.9277,6.9307,6.929,6.947,6.9423,6.9445,6.9505,6.9683,6.9692,6.97,6.9746,6.9763,6.9777,0,0,0,0,0,0,6.8957,6.9022,6.9014,6.9127,6.9178,6.9235,6.9291,6.9284,6.9345,6.9338,6.9351,6.9365,6.9468,6.9496,6.9442,6.9621,6.9572,6.9585,6.9599,6.9615,6.9628,6.9619,6.9402,0,0,0,0,0,6.8978,6.9048,6.91,6.9194,6.922,6.9252,6.9292,6.9298,6.9351,6.9372,6.9409,6.946,6.9529,6.9573,6.9639,6.9756,6.977,6.9808,6.9821,6.9831,6.9842,6.9909,6.9927,6.9733,6.9732,6.9732,0,0,6.9021,6.9065,6.9108,6.9202,6.9242,6.9315,6.927,6.9347,6.9401,6.9383,6.9482,6.9511,6.9569,6.968,6.973,6.9707,6.9899,6.9841,6.9849,6.9855,6.992,6.9938,6.9954,6.9738,6.9737,6.9736,0,0,6.9137,6.9176,6.9261,6.9303,6.9365,6.9386,6.9406,6.9465,6.9484,6.9584,6.9573,6.9637,6.9754,6.9797,6.9834,6.997,6.9958,6.9991,7.0056,7.0121,7.0137,7.015,7.0201,7.0219,7.0002,7.0002,7.0002,0,6.9182,6.9291,6.9304,6.9385,6.9427,6.9416,6.9502,6.9542,6.9622,6.9652,6.9624,6.9774,6.9812,6.9933,6.9967,6.9997,7.0021,6.9984,7.0134,7.0147,7.016,7.0209,7.0227,7.0006,7.0005,7.0005,7.0005,0,6.9345,6.9421,6.9482,6.9561,6.9611,6.9693,6.9719,6.9768,6.977,6.9794,6.9897,6.9943,7.0019,7.0048,7.005,7.0171,7.0155,7.013,7.0081,7.0183,7.0228,7.0247,7.0011,7.001,7.0009,7.0008,0,0,6.9484,6.9573,6.9595,6.9632,6.9701,6.976,6.9843,6.9919,6.9961,7.0017,7.0087,7.0188,7.0168,7.021,7.0217,7.0274,7.0381,7.0243,7.0244,7.0269,7.052,7.0539,7.056,7.0374,7.0377,7.038,7.0516,0,6.9608,6.9755,6.9771,6.9902,6.9974,6.9966,7.0038,7.0089,7.0114,7.0178,7.0205,7.0278,7.0243,7.0269,7.0325,7.0356,7.0432,7.0347,7.044,7.0443,7.0427,7.0584,7.0603,7.0729,7.0534,7.0537,7.0539,0,6.9772,6.9835,6.9974,7.0036,7.0067,7.0131,7.0204,7.0265,7.0323,7.0337,7.0387,7.0387,7.0473,7.042,7.054,7.0482,7.0521,7.0542,7.0548,7.0558,7.0498,7.0599,7.0769,7.0789,7.0567,7.0564,7.0562,0,6.9862,6.9982,7.0081,7.0113,7.0187,7.0234,7.0266,7.0321,7.0367,7.043,7.046,7.0531,7.0571,7.0626,7.0646,7.0606,7.0766,7.0714,7.0782,7.0781,7.0816,7.0814,7.0996,7.0839,7.0839,7.0839,7.0838,0,6.9999,7.0085,7.0123,7.0184,7.0281,7.0299,7.0394,7.0424,7.0474,7.0541,7.0538,7.0601,7.0624,7.0691,7.0707,7.0806,7.0823,7.0838,7.0841,7.0839,7.0837,7.0865,7.0858,7.0844,7.0843,7.0842,7.0841,0,7.0117,7.0145,7.0254,7.0316,7.0334,7.0403,7.0456,7.0516,7.0541,7.0627,7.0648,7.0687,7.0767,7.0792,7.0888,7.0899,7.1014,7.1009,7.0995,7.0996,7.1063,7.1057,7.1271,7.13,7.1122,7.1124,7.1125,0,7.0203,7.0269,7.034,7.0386,7.0421,7.0494,7.0541,7.0562,7.0611,7.0684,7.0735,7.0814,7.0879,7.1006,7.1043,7.1117,7.1115,7.1185,7.1126,7.1122,7.1118,7.1115,7.1123,7.1196,7.1198,7.1199,7.1201,0,7.0354,7.0366,7.0434,7.0509,7.0566,7.0625,7.0682,7.072,7.0748,7.0804,7.0887,7.0937,7.1036,7.1115,7.1191,7.1225,7.1219,7.1219,7.1239,7.1238,7.1228,7.1236,7.1027,7.1214,7.1213,7.1212,7.1211,7.121,7.046,7.052,7.058,7.0657,7.0702,7.0757,7.0817,7.0851,7.092,7.1003,7.101,7.11,7.1158,7.126,7.1298,7.1368,7.1348,7.1376,7.1384,7.1391,7.1397,7.1216,7.1382,7.1381,7.1381,7.1381,7.138,0,7.0613,7.0652,7.0722,7.0804,7.0865,7.0855,7.0918,7.097,7.1049,7.1105,7.1169,7.1265,7.1343,7.1387,7.1465,7.1513,7.1512,7.1533,7.153,7.1538,7.1409,7.1386,7.1532,7.1532,7.1532,7.1532,7.1532,7.1532,7.07,7.0801,7.082,7.0945,7.0983,7.1071,7.1109,7.116,7.1204,7.1312,7.1377,7.1406,7.1457,7.1539,7.1611,7.1622,7.1651,7.1674,7.1684,7.1563,7.1547,7.1532,7.151,7.168,7.168,7.1807,7.1808,7.1809]}]]